GW3385 Weather Reports


Display with metric or nautical units.
time (UTC)temp
F
wind
direction
speed
MPH
gust
MPH
rain 1hr
in
rain 24hr
in
rain mn
in
humidity
%
barometer
mb
20260505050556 57 267 1.0 6.0 0.00 0.00 0.00 86 1013.8
20260505041555 57 169 4.0 8.0 0.00 0.00 0.00 85 1014.0
20260505041055 57 200 3.0 9.0 0.00 0.00 0.00 85 1014.1
20260505040557 57 283 4.0 10.0 0.00 0.00 0.00 85 1013.9
20260505040105 57 272 5.0 11.0 0.00 0.00 0.00 85 1013.9
20260505035555 57 261 5.0 11.0 0.00 0.00 0.00 84 1014.0
20260505035052 58 284 7.0 11.0 0.00 0.00 0.00 84 1014.1
20260505034557 58 243 2.0 10.0 0.00 0.00 0.00 84 1014.0
20260505034057 58 269 5.0 10.0 0.00 0.00 0.00 83 1013.9
20260505033556 58 268 5.0 12.0 0.00 0.00 0.00 83 1013.8
20260505033057 58 274 6.0 12.0 0.00 0.00 0.00 82 1013.8
20260505032556 58 274 4.0 10.0 0.00 0.00 0.00 82 1013.8
20260505032055 58 180 2.0 10.0 0.00 0.00 0.00 82 1013.7
20260505031555 58 286 3.0 10.0 0.00 0.00 0.00 82 1013.7
20260505031055 58 297 3.0 10.0 0.00 0.00 0.00 82 1013.5
20260505030556 58 277 4.0 11.0 0.00 0.00 0.00 81 1013.6
20260505030104 58 290 5.0 11.0 0.00 0.00 0.00 80 1013.6
20260505025556 58 297 4.0 10.0 0.00 0.00 0.00 80 1013.5
20260505025055 58 203 3.0 10.0 0.00 0.00 0.00 80 1013.5
20260505024555 58 242 3.0 12.0 0.00 0.00 0.00 80 1013.5
20260505024052 58 240 4.0 12.0 0.00 0.00 0.00 80 1013.5
20260505023556 58 271 6.0 12.0 0.00 0.00 0.00 80 1013.4
20260505023058 58 258 6.0 12.0 0.00 0.00 0.00 80 1013.3
20260505022556 58 225 4.0 12.0 0.00 0.00 0.00 80 1013.3
20260505022056 58 261 7.0 16.0 0.00 0.00 0.00 79 1013.3
20260505021559 58 278 8.0 16.0 0.00 0.00 0.00 80 1013.4
20260505021055 58 270 7.0 15.0 0.00 0.00 0.00 80 1013.3
20260505020556 58 300 9.0 16.0 0.00 0.00 0.00 79 1013.3
20260505020057 59 254 8.0 16.0 0.00 0.00 0.00 78 1013.3
20260505015556 59 291 9.0 16.0 0.00 0.00 0.00 77 1013.4
20260505015059 59 277 9.0 17.0 0.00 0.00 0.00 77 1013.3
20260505014556 59 267 8.0 17.0 0.00 0.00 0.00 78 1013.1
20260505014055 59 211 9.0 17.0 0.00 0.00 0.00 77 1013.2
20260505013555 59 215 7.0 17.0 0.00 0.00 0.00 77 1013.3
20260505013057 59 288 9.0 16.0 0.00 0.00 0.00 78 1013.3
20260505012556 59 262 9.0 15.0 0.00 0.00 0.00 79 1013.5
20260505012055 60 276 7.0 14.0 0.00 0.00 0.00 78 1013.6
20260505011557 60 331 5.0 17.0 0.00 0.00 0.00 80 1013.6
20260505011055 59 257 8.0 17.0 0.00 0.00 0.00 79 1013.6
20260505010556 59 225 11.0 17.0 0.00 0.00 0.00 79 1013.7
20260505010103 59 261 9.0 16.0 0.00 0.00 0.00 79 1013.7
20260505005556 60 277 8.0 17.0 0.00 0.00 0.00 79 1013.7
20260505005056 59 273 9.0 17.0 0.00 0.00 0.00 79 1013.6
20260505004556 60 271 10.0 17.0 0.00 0.00 0.00 77 1013.6
20260505004055 60 227 8.0 17.0 0.00 0.00 0.00 78 1013.6
20260505003559 61 242 8.0 18.0 0.00 0.00 0.00 78 1013.6
20260505003104 61 234 8.0 18.0 0.00 0.00 0.00 77 1013.7
20260505002552 61 261 8.0 14.0 0.00 0.00 0.00 78 1013.8
20260505002053 61 218 6.0 14.0 0.00 0.00 0.00 77 1013.7
20260505001558 60 287 6.0 14.0 0.00 0.00 0.00 78 1013.8
20260505001056 60 186 7.0 17.0 0.00 0.00 0.00 79 1013.7
20260505000552 60 202 11.0 18.0 0.00 0.00 0.00 78 1013.7
20260505000108 60 298 10.0 20.0 0.00 0.00 0.00 77 1013.6
20260504235556 61 284 11.0 20.0 0.00 0.00 0.00 75 1013.5
20260504235055 61 263 8.0 16.0 0.00 0.00 0.00 75 1013.5
20260504234558 61 262 9.0 17.0 0.00 0.00 0.00 74 1013.5
20260504234056 61 280 10.0 18.0 0.00 0.00 0.00 74 1013.6
20260504233556 61 280 12.0 19.0 0.00 0.00 0.00 72 1013.6
20260504233105 61 283 8.0 19.0 0.00 0.00 0.00 74 1013.5
20260504232556 61 218 8.0 19.0 0.00 0.00 0.00 77 1013.4
20260504232055 61 239 9.0 19.0 0.00 0.00 0.00 77 1013.4
20260504231555 61 277 10.0 19.0 0.00 0.00 0.00 76 1013.5
20260504231056 61 315 9.0 18.0 0.00 0.00 0.00 76 1013.6
20260504230555 61 277 10.0 21.0 0.00 0.00 0.00 78 1013.6
20260504230057 61 255 10.0 21.0 0.00 0.00 0.00 77 1013.8
20260504225557 61 276 12.0 20.0 0.00 0.00 0.00 75 1014.0
20260504225055 62 259 9.0 16.0 0.00 0.00 0.00 74 1014.0
20260504224557 62 309 7.0 16.0 0.00 0.00 0.00 76 1013.9
20260504224057 62 266 6.0 19.0 0.00 0.00 0.00 75 1013.9
20260504223555 62 200 8.0 19.0 0.00 0.00 0.00 76 1014.1
20260504223057 62 207 11.0 21.0 0.00 0.00 0.00 76 1014.1
20260504222552 62 286 9.0 21.0 0.00 0.00 0.00 76 1014.2
20260504222056 62 200 9.0 21.0 0.00 0.00 0.00 75 1014.2
20260504221556 62 268 9.0 20.0 0.00 0.00 0.00 75 1014.2
20260504221053 62 294 11.0 19.0 0.00 0.00 0.00 75 1014.3
20260504220556 62 290 9.0 18.0 0.00 0.00 0.00 75 1014.4
20260504220118 62 251 10.0 19.0 0.00 0.00 0.00 75 1014.5
20260504215556 62 219 10.0 19.0 0.00 0.00 0.00 74 1014.3
20260504215059 62 260 9.0 18.0 0.00 0.00 0.00 74 1014.4
20260504214557 62 279 9.0 21.0 0.00 0.00 0.00 75 1014.4
20260504214056 62 252 10.0 22.0 0.00 0.00 0.00 74 1014.5
20260504213555 62 280 11.0 22.0 0.00 0.00 0.00 73 1014.6
20260504213100 62 234 9.0 21.0 0.00 0.00 0.00 74 1014.7
20260504212556 62 276 11.0 21.0 0.00 0.00 0.00 73 1014.6
20260504212056 61 257 9.0 21.0 0.00 0.00 0.00 74 1014.6
20260504211557 61 266 11.0 21.0 0.00 0.00 0.00 72 1014.7
20260504211056 62 271 11.0 17.0 0.00 0.00 0.00 71 1014.7
20260504210557 62 279 9.0 15.0 0.00 0.00 0.00 71 1014.8
20260504210056 62 267 8.0 18.0 0.00 0.00 0.00 71 1014.6
20260504205555 62 273 9.0 18.0 0.00 0.00 0.00 70 1014.5
20260504205055 62 279 11.0 18.0 0.00 0.00 0.00 68 1014.5
20260504204556 63 196 7.0 15.0 0.00 0.00 0.00 68 1014.6
20260504204055 62 221 8.0 18.0 0.00 0.00 0.00 67 1014.5
20260504203556 63 182 9.0 18.0 0.00 0.00 0.00 66 1014.6
20260504203057 63 267 8.0 16.0 0.00 0.00 0.00 66 1014.5
20260504202557 63 294 9.0 17.0 0.00 0.00 0.00 66 1014.4
20260504202052 63 230 9.0 17.0 0.00 0.00 0.00 66 1014.3
20260504201556 63 267 8.0 17.0 0.00 0.00 0.00 65 1014.4
20260504201056 62 205 9.0 17.0 0.00 0.00 0.00 64 1014.3
20260504200555 63 279 9.0 17.0 0.00 0.00 0.00 64 1014.4
20260504200100 63 260 10.0 18.0 0.00 0.00 0.00 63 1014.4
20260504195555 63 224 8.0 18.0 0.00 0.00 0.00 64 1014.3
20260504195052 63 259 8.0 18.0 0.00 0.00 0.00 64 1014.3
20260504194555 63 267 6.0 18.0 0.00 0.00 0.00 63 1014.3
20260504194056 63 284 8.0 17.0 0.00 0.00 0.00 64 1014.4
20260504193556 63 236 5.0 20.0 0.00 0.00 0.00 65 1014.5
20260504193055 63 297 9.0 20.0 0.00 0.00 0.00 65 1014.5
20260504192555 63 290 6.0 16.0 0.00 0.00 0.00 65 1014.4
20260504192055 63 278 7.0 16.0 0.00 0.00 0.00 64 1014.5
20260504191557 63 228 6.0 14.0 0.00 0.00 0.00 64 1014.5
20260504191056 63 211 5.0 15.0 0.00 0.00 0.00 64 1014.5
20260504190556 63 281 6.0 15.0 0.00 0.00 0.00 65 1014.4
20260504190107 63 257 6.0 15.0 0.00 0.00 0.00 65 1014.5
20260504185555 62 227 7.0 16.0 0.00 0.00 0.00 66 1014.5
20260504185055 62 155 6.0 16.0 0.00 0.00 0.00 67 1014.7
20260504184613 62 218 8.0 15.0 0.00 0.00 0.00 66 1014.8
20260504184052 62 261 6.0 13.0 0.00 0.00 0.00 67 1014.9
20260504183555 62 221 5.0 14.0 0.00 0.00 0.00 67 1014.9
20260504183111 62 186 4.0 14.0 0.00 0.00 0.00 68 1014.7
20260504182552 62 190 4.0 15.0 0.00 0.00 0.00 69 1014.8
20260504182053 61 277 9.0 15.0 0.00 0.00 0.00 67 1014.7
20260504181552 62 207 6.0 16.0 0.00 0.00 0.00 68 1014.7
20260504181056 61 264 6.0 16.0 0.00 0.00 0.00 68 1014.8
20260504180556 62 304 8.0 16.0 0.00 0.00 0.00 67 1014.9
20260504180056 62 246 7.0 15.0 0.00 0.00 0.00 67 1014.8
20260504175556 62 240 6.0 15.0 0.00 0.00 0.00 68 1014.7
20260504175056 61 240 8.0 17.0 0.00 0.00 0.00 67 1014.8
20260504174604 61 182 7.0 17.0 0.00 0.00 0.00 69 1014.7
20260504174057 61 225 9.0 16.0 0.00 0.00 0.00 70 1014.6
20260504173556 61 140 7.0 13.0 0.00 0.00 0.00 70 1014.5
20260504173106 61 212 7.0 12.0 0.00 0.00 0.00 71 1014.5
20260504172555 62 246 7.0 12.0 0.00 0.00 0.00 71 1014.5
20260504172055 62 234 4.0 10.0 0.00 0.00 0.00 72 1014.5
20260504171558 62 171 5.0 10.0 0.00 0.00 0.00 71 1014.5
20260504171055 62 224 4.0 10.0 0.00 0.00 0.00 71 1014.4
20260504170557 62 261 6.0 10.0 0.00 0.00 0.00 70 1014.4
20260504151055 59 54 0.0 3.0 0.00 0.00 0.00 79 1013.9
20260504150557 58 0 0.0 3.0 0.00 0.00 0.00 79 1013.9
20260504150103 58 22 0.0 6.0 0.00 0.00 0.00 80 1014.0
20260504141055 57 350 0.0 1.0 0.00 0.00 0.00 83 1013.7
20260504140555 57 0 0.0 1.0 0.00 0.00 0.00 85 1013.7
20260504130557 57 47 1.0 2.0 0.00 0.00 0.00 84 1013.4
20260504110556 57 234 2.0 4.0 0.00 0.00 0.00 84 1013.2
20260504100555 57 0 0.0 0.0 0.00 0.00 0.00 83 1012.8
20260504081609 58 249 2.0 6.0 0.00 0.00 0.00 81 1014.1
20260504081054 58 236 2.0 5.0 0.00 0.00 0.00 82 1014.3
20260504080552 58 287 1.0 3.0 0.00 0.00 0.00 82 1014.2